Location: Cussy
(47.0410°N, 4.6412°E)
Time: 15:18:09
(UTC+00:00)

Cosmos 923 Rocket - Pass Details

Date: 30 November 2020
Orbit: 757 x 786 km, 74.0° (Epoch: 28 January)

Event Time Altitude Azimuth Distance (km) Brightness Sun altitude
Rises 17:51:52 0° 182° (S) 3,200 7.4 -19.3°
Reaches altitude 10° 17:54:18 10° 176° (S) 2,281 6.5 -19.7°
Maximum altitude 17:59:12 45° 104° (ESE) 1,028 4.2 -20.6°
Enters shadow 17:59:41 44° 88° (E) 1,047 4.2 -20.6°
